Zurück zum Katalog

FENGYUN 1C DEB

AktivPO
NORAD 29934·DEBRIS·🇨🇳 China

Gestartet May 10, 1999 von Taiyuan Satellite Launch Center

Loading…

Nächste Überflüge (nächste 24 Stunden)

TLE

AktuellSource: Space-Track

Epoche: Sep 14, 2026, 11:06 UTC

1 29934U 99025JG  26257.46283110  .00003644  00000-0  63020-3 0  9990
2 29934  98.8722 331.3693 0099109 122.9969 238.0805 14.65881052 38062

Verfolge FENGYUN 1C DEB in Echtzeit mit AllMySat

Download on the App Store